sat.trackr.live / text

‹ back to catalog

AMOS-17

NORAD 44479 · 2019-050A

PAYLOAD ACTIVE UNKNOWN

§ Identity

Operator
Country
ISRA
Launch date
2019-08-06
Launch site
AFETR
Launch vehicle
Mass (kg)
RCS (m²)

Purposes: comms

External: N2YO · Heavens-Above · Gunter

§ Orbital elements

Epoch: 2026-09-14T19:00:58.840416Z

Period
1,436.12 min
Inclination
0.0401°
Eccentricity
0.0002116
Mean motion
1.00270440 rev/d
Perigee alt
35,778.0 km
Apogee alt
35,795.9 km
Semi-major
42,165.1 km
B*
0.0000e+0
RAAN
358.2571°
Arg perigee
176.3005°
Mean anomaly
121.4783°
Rev number
2,608

§ Raw data

AMOS-171 44479U 19050A   26257.79234769  .00000102  00000+0  00000+0 0  99932 44479   0.0401 358.2571 0002116 176.3005 121.4783  1.00270440 26088

JSON: /api/v1/satellites/44479 · /tle

For live sub-satellite position, see the globe view (requires WebGL).

§ Visibility from observer

Set your observer location to see the next 7 days of passes ≥ 10°. The values pass through the URL so the page stays shareable.

No JS? Fill the form by hand. The geolocation button needs JavaScript.